TimePST,TemperatureF,Dew PointF,Humidity,Sea Level PressureIn,VisibilityMPH,Wind Direction,Wind SpeedMPH,Gust SpeedMPH,PrecipitationIn,Events,Conditions,WindDirDegrees,DateUTC
12:43 AM,50.0,48.2,94,30.23,10.0,SE,4.6,-,N/A,,Overcast,140,2012-11-14 08:43:00
12:53 AM,50.0,48.9,96,30.23,10.0,SE,5.8,-,N/A,,Overcast,140,2012-11-14 08:53:00
1:10 AM,50.0,48.2,94,30.23,10.0,ESE,5.8,-,N/A,,Overcast,110,2012-11-14 09:10:00
1:53 AM,50.0,48.0,93,30.23,10.0,East,4.6,-,N/A,,Overcast,80,2012-11-14 09:53:00
2:40 AM,50.0,48.2,94,30.24,10.0,Calm,Calm,-,N/A,,Overcast,0,2012-11-14 10:40:00
2:53 AM,50.0,48.9,96,30.24,10.0,Calm,Calm,-,N/A,,Overcast,0,2012-11-14 10:53:00
3:04 AM,50.0,48.2,94,30.23,10.0,Calm,Calm,-,N/A,,Overcast,0,2012-11-14 11:04:00
3:26 AM,48.2,48.2,100,30.23,8.0,Calm,Calm,-,N/A,,Mostly Cloudy,0,2012-11-14 11:26:00
3:53 AM,48.9,48.9,100,30.23,7.0,Calm,Calm,-,N/A,Fog,Shallow Fog,0,2012-11-14 11:53:00
4:04 AM,50.0,48.2,94,30.23,1.0,Calm,Calm,-,N/A,,Mostly Cloudy,0,2012-11-14 12:04:00
4:18 AM,48.2,48.2,100,30.24,7.0,Calm,Calm,-,N/A,Fog,Shallow Fog,0,2012-11-14 12:18:00
4:53 AM,50.0,48.9,96,30.25,10.0,Calm,Calm,-,N/A,,Overcast,0,2012-11-14 12:53:00
5:53 AM,48.9,48.0,97,30.25,9.0,West,5.8,-,N/A,,Overcast,280,2012-11-14 13:53:00
6:19 AM,48.2,46.4,93,30.25,8.0,West,4.6,-,N/A,,Mostly Cloudy,260,2012-11-14 14:19:00
6:35 AM,46.4,46.4,100,30.26,2.0,West,3.5,-,N/A,Fog,Shallow Fog,270,2012-11-14 14:35:00
6:53 AM,46.9,46.9,100,30.26,1.0,Calm,Calm,-,N/A,,Mostly Cloudy,0,2012-11-14 14:53:00
7:11 AM,46.4,46.4,100,30.27,0.5,West,3.5,-,N/A,Fog,Fog,280,2012-11-14 15:11:00
7:16 AM,46.4,46.4,100,30.27,0.1,WNW,3.5,-,N/A,Fog,Fog,300,2012-11-14 15:16:00
7:28 AM,48.2,48.2,100,30.28,0.1,Calm,Calm,-,N/A,Fog,Fog,0,2012-11-14 15:28:00
7:53 AM,48.0,48.0,100,30.29,0.1,Calm,Calm,-,N/A,Fog,Fog,0,2012-11-14 15:53:00
8:08 AM,48.2,48.2,100,30.29,0.5,Calm,Calm,-,N/A,,Overcast,0,2012-11-14 16:08:00
8:17 AM,48.2,48.2,100,30.29,1.0,Calm,Calm,-,N/A,,Overcast,0,2012-11-14 16:17:00
8:45 AM,48.2,48.2,100,30.30,1.5,Calm,Calm,-,N/A,,Overcast,0,2012-11-14 16:45:00
8:53 AM,48.9,48.0,97,30.30,1.5,Calm,Calm,-,N/A,,Overcast,0,2012-11-14 16:53:00
9:03 AM,50.0,48.2,94,30.30,2.0,Calm,Calm,-,N/A,,Overcast,0,2012-11-14 17:03:00
9:29 AM,50.0,48.2,94,30.30,2.0,Calm,Calm,-,N/A,,Overcast,0,2012-11-14 17:29:00
9:53 AM,50.0,48.0,93,30.30,3.0,Calm,Calm,-,N/A,,Overcast,0,2012-11-14 17:53:00
10:36 AM,51.8,48.2,88,30.31,3.0,Calm,Calm,-,N/A,,Mostly Cloudy,0,2012-11-14 18:36:00
10:53 AM,53.1,48.0,83,30.31,3.0,Calm,Calm,-,N/A,,Mostly Cloudy,0,2012-11-14 18:53:00
11:47 AM,55.4,46.4,72,30.30,10.0,Calm,Calm,-,N/A,,Mostly Cloudy,0,2012-11-14 19:47:00
11:53 AM,55.0,48.0,77,30.30,10.0,NW,3.5,-,N/A,,Mostly Cloudy,310,2012-11-14 19:53:00
12:53 PM,55.0,46.9,74,30.29,10.0,Calm,Calm,-,N/A,,Scattered Clouds,0,2012-11-14 20:53:00
1:53 PM,55.9,48.0,75,30.50,7.0,WNW,8.1,-,N/A,,Partly Cloudy,290,2012-11-14 21:53:00
2:53 PM,55.9,48.0,75,30.49,10.0,WNW,8.1,-,N/A,,Partly Cloudy,300,2012-11-14 22:53:00
3:53 PM,55.0,48.0,77,30.48,10.0,West,5.8,-,N/A,,Partly Cloudy,280,2012-11-14 23:53:00
4:53 PM,53.1,46.9,80,30.47,10.0,WNW,4.6,-,N/A,,Partly Cloudy,290,2012-11-15 00:53:00
5:53 PM,48.9,46.0,90,30.47,10.0,West,4.6,-,N/A,,Partly Cloudy,260,2012-11-15 01:53:00
6:53 PM,48.9,46.0,90,30.48,10.0,West,3.5,-,N/A,,Clear,260,2012-11-15 02:53:00
7:53 PM,45.0,44.1,97,30.47,6.0,West,5.8,-,N/A,,Clear,270,2012-11-15 03:53:00
8:31 PM,44.6,44.6,100,30.25,5.0,West,3.5,-,N/A,,Partly Cloudy,270,2012-11-15 04:31:00
8:49 PM,44.6,42.8,93,30.25,6.0,West,3.5,-,N/A,,Mostly Cloudy,260,2012-11-15 04:49:00
8:53 PM,44.1,43.0,96,30.47,7.0,West,3.5,-,N/A,,Mostly Cloudy,260,2012-11-15 04:53:00
9:34 PM,44.6,42.8,93,30.25,5.0,NW,3.5,-,N/A,Fog,Patches of Fog,320,2012-11-15 05:34:00
9:53 PM,44.1,43.0,96,30.47,6.0,NW,3.5,-,N/A,Fog,Patches of Fog,310,2012-11-15 05:53:00
10:07 PM,42.8,42.8,100,30.25,6.0,Calm,Calm,-,N/A,Fog,Patches of Fog,0,2012-11-15 06:07:00
10:19 PM,44.6,44.6,100,30.25,7.0,Calm,Calm,-,N/A,,Mostly Cloudy,0,2012-11-15 06:19:00
10:53 PM,45.0,45.0,100,30.45,8.0,WSW,3.5,-,N/A,,Overcast,250,2012-11-15 06:53:00
11:48 PM,44.6,42.8,93,30.22,6.0,West,5.8,-,N/A,,Scattered Clouds,280,2012-11-15 07:48:00
11:53 PM,45.0,44.1,97,30.44,7.0,WNW,4.6,-,N/A,,Scattered Clouds,290,2012-11-15 07:53:00